Location: Coll
(42.4728°N, 0.7714°E)
Time: 12:47:29
(UTC+00:00)

Cosmos 1908 - Pass Details

Date: 23 October 2020
Orbit: 512 x 529 km, 82.5° (Epoch: 01 December)

Event Time Altitude Azimuth Distance (km) Brightness Sun altitude
Rises 04:20:02 0° 357° (N) 2,678 6.9 -22.7°
Reaches altitude 10° 04:22:15 10° 3° (N) 1,785 6.0 -22.3°
Maximum altitude 04:26:04 49° 79° (E) 695 4.2 -21.6°
Drops below altitude 10° 04:29:50 10° 155° (SSE) 1,773 6.2 -20.9°
Sets 04:32:01 0° 161° (SSE) 2,657 7.0 -20.5°
